|
NORAD ID: 10976 Int'l Code: 1978-068B
Perigee: 618.8 km
Apogee: 36,240.7 km
Inclination: 22.0 °
Period: 647.8 minutes
Semi major axis: 24800 km
Launch date: June 29, 1978
Source: United States (US)
Note: This is a ROCKET BODY
Two Line Element Set (TLE):
1 10976U 78068B 13144.07405382 -.00000079 00000-0 22959-2 0 2195
2 10976 021.9913 355.5756 7181628 066.9435 009.0206 02.22283168283219
Source:
NASA's NSSDC Master Catalog entry for ATLAS CENTAUR R/B
|